User: anonymous   Login
Location: Unspecified
(47.8330°N, 0.0000°E)
Time: 08:18:25
(UTC+00:00)
Language:

SO-50 - Orbit

View from above orbital plane
View from above orbital plane
View from above satellite
View from above satellite

Ground track
Ground track

The orbit data is extracted from the following two-line orbital elements,

1 27607U 02058C   19197.94427369 -.00000057 +00000-0 +12915-4 0  9993
2 27607 064.5558 323.2173 0080371 251.0935 108.1443 14.75558715891076
Epoch (UTC): 16 July 2019 22:39:45
Eccentricity: 0.0080371
inclination: 64.5558°
perigee height: 587 km
apogee height: 700 km
right ascension of ascending node: 323.2173°
argument of perigee: 251.0935°
revolutions per day: 14.75558715
mean anomaly at epoch: 108.1443°
orbit number at epoch: 89107

The dashed part of the orbit path shows where the satellite is in the earth's shadow,  

DLR